Probability
2 2 1 1 1 0 0 1 1 1 0 0 0 0 0 0 0 0 0 0 0 0 0 0 0 1 1 0 0 0 0 0 0 0 0 0 0 0 0 0 0 0 0 0 0 0 0 0 0
1 1 0 0 0 0 0 0 0 0 0 0 0 0 0 0 0 0 0 0 0 0 0 0 1 2 2 1 0 0 0 0 0 0 0 0 0 0 0 0 0 0 0 0 0 0 0 0 0
0 0 0 0 0 0 0 0 0 0 0 0 0 0 0 0 0 0 0 0 0 0 0 1 1 2 2 1 0 0 0 0 0 0 0 0 0 0 0 0 0 0 0 0 0 0 0 0 0
1 0 0 0 0 0 0 0 0 0 0 0 0 0 0 0 0 0 0 0 0 0 1 2 2 2 2 1 0 0 0 0 0 0 0 0 0 0 0 0 0 0 0 0 0 0 0 0 0
1 0 0 0 0 0 0 0 0 0 0 0 0 0 0 0 0 0 0 0 0 1 1 2 2 2 1 0 0 0 0 0 0 0 0 0 0 0 0 0 0 0 0 0 0 0 0 0 0
1 0 0 0 0 0 0 0 0 0 0 0 0 0 0 0 0 0 0 0 0 1 2 2 2 1 0 0 0 0 0 0 0 0 0 0 0 0 0 0 0 0 0 0 0 0 0 0 0
2 1 0 0 0 0 0 0 0 0 0 0 0 0 1 1 0 0 0 0 1 2 3 2 1 0 0 0 0 0 0 0 0 0 0 0 0 0 0 0 0 0 0 0 0 0 0 0 0
2 1 0 0 0 0 0 0 0 0 0 1 1 1 2 2 1 0 0 1 1 3 4 3 1 0 0 0 0 0 0 0 0 0 0 0 0 0 0 0 0 0 0 0 0 0 0 0 0
1 1 0 0 0 0 0 0 0 0 0 0 1 2 2 2 1 0 0 1 1 3 4 3 2 1 0 0 0 0 0 0 0 0 0 0 0 0 0 0 0 0 0 0 0 0 0 0 0
0 0 0 0 0 0 0 0 0 0 0 0 1 2 2 1 0 0 0 1 1 2 3 3 3 1 0 0 0 0 0 0 0 0 0 0 0 0 0 0 0 0 0 0 0 0 0 0 0
0 0 0 0 0 0 0 0 0 0 0 0 1 1 1 0 0 0 0 1 2 1 1 3 3 1 0 0 0 0 0 0 0 0 0 0 0 0 0 0 0 0 0 0 0 0 0 0 0
0 0 0 0 0 0 0 0 0 0 0 0 0 0 0 0 0 0 0 1 2 1 1 3 3 1 1 1 0 0 0 0 0 0 0 0 0 0 0 0 0 0 0 0 0 0 0 0 0
0 0 0 0 0 0 0 0 0 0 0 0 0 0 0 0 0 0 0 1 1 1 2 4 3 1 1 1 1 0 0 0 0 0 0 0 0 0 0 0 0 0 0 0 0 0 0 0 0
0 0 0 0 0 0 0 0 0 0 0 0 0 0 0 0 0 0 0 0 1 1 3 5 4 1 1 2 1 0 0 0 0 0 0 0 0 0 0 0 0 0 0 0 0 0 0 0 0
0 0 0 0 0 0 0 0 0 0 0 0 0 0 0 0 0 0 0 0 1 3 5 5 3 1 1 2 2 1 1 0 0 0 0 0 0 0 0 0 0 0 0 0 0 0 0 0 0
0 0 0 0 0 0 0 0 0 0 0 0 0 0 0 1 1 0 0 0 2 3 4 5 4 3 3 3 3 2 1 0 0 0 0 0 0 0 0 0 0 0 0 0 0 0 0 0 0
0 0 0 0 0 0 0 0 0 0 0 0 0 0 0 1 2 1 0 0 1 3 4 6 6 6 5 5 4 2 1 0 0 0 0 0 0 0 0 0 0 0 0 0 0 0 0 0 0
0 0 0 0 0 0 0 1 1 1 0 0 0 0 0 1 2 2 1 1 1 2 4 6 8 8 7 6 4 3 1 1 1 0 0 0 0 0 0 0 0 0 0 0 0 0 0 0 0
0 0 0 0 0 0 0 1 2 1 0 0 0 0 0 1 2 3 3 2 2 2 4 6 8 7 6 5 5 3 2 1 1 0 0 0 0 0 0 0 0 0 0 0 0 0 0 0 0
0 0 0 0 0 0 0 1 2 1 0 0 0 0 0 1 1 2 3 3 3 3 4 5 6 6 5 6 5 3 2 2 1 0 0 0 0 0 0 0 0 0 0 0 0 0 0 0 0
0 0 0 0 0 0 0 1 1 1 0 0 0 0 0 0 0 1 3 4 4 5 5 4 4 4 6 7 5 2 2 2 1 0 0 0 0 0 0 0 0 0 0 0 0 0 0 0 0
0 0 0 0 0 1 0 0 1 1 1 1 1 0 0 0 0 1 4 5 6 7 8 7 5 5 6 6 4 2 1 1 0 0 0 0 0 0 0 0 0 0 0 0 0 0 0 0 0
0 0 0 0 0 0 0 0 0 1 2 2 2 1 0 0 0 1 3 6 7 9 12 11 9 7 6 5 3 1 0 0 0 0 0 0 0 0 0 0 0 0 0 0 0 0 0 0 0
0 0 0 0 0 0 0 0 0 1 2 3 2 1 0 0 1 2 3 5 8 12 15 15 12 9 6 5 3 1 0 0 0 0 0 0 0 0 0 0 0 0 0 0 0 0 0 0 0
0 0 0 0 0 0 0 0 0 0 1 2 3 2 1 0 2 3 3 4 7 12 15 15 13 9 6 4 4 3 1 1 0 0 0 0 0 0 0 0 0 0 0 0 0 0 0 0 0
0 0 0 0 0 0 0 0 0 0 0 1 2 2 1 1 1 2 3 3 5 9 12 12 10 8 6 6 6 5 4 3 1 0 0 0 0 0 0 0 0 0 0 0 0 0 0 0 0
0 0 0 0 0 0 0 0 0 0 0 0 1 2 2 2 1 1 3 4 4 5 8 8 7 7 7 7 7 6 6 5 3 2 2 1 0 0 0 0 0 0 1 1 1 0 0 0 0
0 0 0 0 0 0 0 0 0 1 1 1 0 1 2 3 2 1 3 4 3 3 4 5 5 5 6 6 7 7 6 6 6 5 3 2 1 0 0 0 0 1 2 2 2 1 0 0 0
0 0 0 0 0 0 0 0 0 1 1 1 0 0 1 3 3 2 2 3 2 1 2 3 4 4 5 5 6 7 7 7 7 7 6 3 2 1 1 0 0 1 2 3 2 1 0 0 0
0 0 0 0 0 0 0 0 0 0 1 0 0 0 1 2 3 2 1 1 1 1 1 3 3 4 5 5 6 8 8 7 7 8 7 5 3 2 2 1 0 1 2 3 2 1 0 0 0
Wind_Speed
9 9 5 2 2 2 2 5 7 7 7 9 9 9 12 12 9 8 2 5 8 9 8 9 9 9 9 9 10 10 10 10 10 9 9 10 10 10 10 10 10 10 11 10 10 10 10 10 9
9 6 3 3 2 1 4 5 8 9 7 6 7 10 13 12 10 8 4 5 7 9 8 9 10 10 9 10 10 10 10 10 10 9 9 10 10 10 10 10 10 10 10 10 10 10 10 10 9
11 7 3 2 2 2 4 6 7 8 6 6 6 10 10 7 8 6 5 6 8 9 9 10 11 11 10 10 10 10 10 10 10 9 9 10 10 10 9 9 10 10 10 10 10 10 10 9 9
5 3 3 2 2 7 7 6 5 6 6 6 7 9 9 8 6 7 7 8 9 10 10 10 11 11 10 10 10 10 10 10 10 10 9 9 9 9 9 9 9 9 9 9 9 9 9 9 8
3 3 3 1 2 7 7 6 5 5 6 7 9 10 9 8 9 9 7 8 9 9 10 10 11 11 10 10 10 10 9 9 9 9 9 9 9 9 9 9 9 9 9 9 9 9 8 8 7
3 2 2 1 4 6 6 4 4 6 7 7 7 9 7 7 7 7 7 7 8 9 10 10 11 11 10 10 10 9 9 8 8 8 9 9 9 9 9 9 9 8 8 8 8 8 8 7 7
3 3 3 1 5 4 4 4 4 5 6 6 4 7 8 7 5 6 7 6 7 8 9 8 8 9 10 10 9 8 8 8 7 8 8 8 8 8 9 9 8 8 8 8 8 8 7 7 6
3 4 3 2 4 4 4 3 4 5 5 5 5 6 7 7 6 5 6 6 6 7 6 7 7 8 8 7 8 8 8 7 7 6 7 7 7 8 9 8 8 8 8 7 7 7 6 5 4
3 2 2 4 3 4 4 3 4 3 5 7 8 9 9 10 8 5 5 5 5 5 4 5 6 6 6 7 8 7 7 6 5 5 7 6 4 5 5 8 8 7 7 6 5 5 4 3 2
1 1 3 5 4 4 3 2 3 2 4 6 9 10 9 8 7 6 5 5 5 4 4 4 5 6 6 5 5 4 4 4 3 3 4 3 2 4 6 8 8 6 5 4 3 3 3 2 1
0 1 3 4 5 3 2 2 1 2 3 5 7 8 7 6 6 5 4 4 4 3 3 4 4 5 5 3 3 2 2 2 2 3 3 2 3 3 4 3 4 4 4 2 3 3 2 1 1
1 2 2 3 4 2 1 2 2 3 3 4 7 7 6 6 5 4 4 4 4 4 3 3 3 4 4 4 3 2 2 2 2 2 3 2 1 1 2 2 3 2 1 1 1 1 2 2 3
2 2 2 2 3 2 3 2 2 3 4 5 6 6 5 4 4 4 4 4 4 3 3 3 2 3 3 4 2 3 2 2 2 1 2 3 2 2 1 1 1 1 1 1 2 2 3 4 4
1 1 2 3 2 3 2 2 3 3 3 4 5 5 5 4 3 4 4 4 4 3 3 3 3 3 3 3 2 2 2 2 2 1 1 2 2 2 2 2 1 2 2 2 2 3 3 3 4
2 3 3 4 4 3 1 3 4 4 4 4 4 5 5 4 3 3 3 4 4 4 3 3 4 4 3 3 2 2 2 2 2 1 0 1 2 2 2 2 2 2 2 3 3 4 3 3 3
6 5 4 5 5 4 3 2 3 5 5 4 4 4 4 4 4 3 3 3 3 3 3 3 3 4 3 3 2 2 2 2 2 1 1 1 2 3 3 2 2 2 3 3 2 3 3 3 3
6 6 4 4 6 4 4 2 3 5 5 4 4 4 5 5 5 4 4 3 3 3 3 4 3 4 3 3 3 2 2 2 2 2 2 2 2 2 3 2 1 3 2 2 3 3 3 2 2
2 3 2 3 5 3 3 3 4 6 5 4 4 5 5 6 5 4 3 3 2 2 3 4 3 3 3 3 2 2 2 2 2 2 1 2 1 2 3 2 2 3 3 2 3 3 2 2 2
5 4 3 1 3 2 4 4 5 6 6 5 5 5 5 5 6 5 4 3 2 1 2 4 4 3 3 2 2 2 2 1 1 1 2 2 1 2 3 2 2 3 2 2 2 2 2 1 1
5 5 4 2 1 3 4 5 5 6 7 6 5 5 4 4 5 5 5 4 3 2 1 3 4 4 4 3 2 2 2 1 2 1 1 1 2 2 2 2 2 2 2 2 2 2 1 0 1
5 4 4 3 3 6 5 6 6 8 7 6 5 4 3 4 5 6 5 4 4 3 3 3 3 5 5 5 2 2 2 1 2 2 1 0 1 1 1 2 2 3 2 1 1 1 1 1 1
4 3 5 5 5 4 5 3 4 7 8 8 6 5 4 3 3 5 5 5 4 4 3 4 4 4 5 6 4 3 3 2 2 2 2 1 2 2 1 2 2 2 2 2 2 2 1 1 0
4 5 7 8 7 7 7 5 3 6 7 7 7 6 5 5 4 4 4 4 4 4 3 3 4 4 5 6 5 4 2 2 2 2 3 2 2 2 1 1 2 2 2 2 1 1 1 1 1
5 7 9 8 6 7 6 4 2 3 4 5 5 5 5 4 4 4 4 4 4 4 4 3 3 3 3 4 5 4 3 3 3 3 2 2 2 1 2 1 2 2 2 2 2 1 1 0 0
6 5 3 4 5 4 2 3 2 4 5 5 5 4 4 4 4 4 4 4 4 4 4 4 3 3 3 4 5 5 4 4 4 3 3 2 2 1 2 2 2 2 2 2 2 2 2 1 0
5 6 4 3 3 2 3 2 4 6 6 5 5 4 3 3 3 3 3 4 4 5 5 5 4 4 3 4 4 4 4 3 2 3 3 3 2 2 2 2 2 2 1 2 2 1 1 1 1
5 5 5 6 8 6 2 4 5 6 6 5 5 4 3 3 3 3 3 3 4 4 4 4 4 4 4 5 4 4 4 4 3 3 3 2 2 2 2 2 3 2 2 2 2 1 1 1 1
7 7 4 3 4 5 3 2 3 5 5 5 4 3 4 3 3 3 3 3 3 3 3 4 4 4 4 4 4 3 3 4 4 3 4 4 3 3 3 3 2 2 2 3 2 2 1 2 1
7 7 5 4 5 4 3 1 3 4 4 3 3 4 4 3 3 2 2 2 2 3 4 4 4 3 3 3 3 3 3 3 3 3 3 3 3 3 3 3 3 3 3 3 3 2 2 2 2
6 7 6 5 5 4 5 2 4 4 4 3 3 4 4 4 3 3 3 2 1 2 3 3 2 3 3 3 3 3 3 3 3 3 3 3 3 3 3 3 3 3 3 3 3 2 2 2 2
Wind_Direction
269 252 244 251 258 235 71 60 68 60 56 52 47 57 69 54 50 83 109 87 95 102 105 98 91 88 87 87 88 89 90 90 90 87 86 86 83 79 80 79 78 76 75 74 74 73 73 72 71
280 274 264 242 268 306 72 70 67 61 64 73 62 63 73 67 72 94 106 92 97 97 96 93 94 92 92 93 93 92 94 94 94 90 87 89 86 83 80 79 77 75 72 72 74 74 73 71 69
268 267 262 254 294 54 89 79 81 77 61 64 71 60 53 58 71 92 115 114 100 94 93 95 93 92 91 92 93 95 97 96 95 92 91 90 88 86 83 82 80 77 73 72 74 74 73 70 66
269 260 242 255 48 65 88 93 91 90 68 56 74 75 70 52 74 103 120 112 102 100 98 100 98 98 96 95 97 99 98 98 97 94 94 93 91 90 86 83 81 79 78 76 76 73 72 68 62
248 260 258 232 84 81 73 74 80 84 79 61 70 87 83 73 89 106 109 106 107 108 109 108 104 104 102 99 98 100 99 99 99 96 95 94 92 91 88 84 82 82 81 80 78 75 72 69 60
266 256 266 198 106 94 81 64 68 78 84 75 82 96 90 98 96 102 102 104 109 113 112 114 113 111 105 102 101 102 102 101 100 100 101 99 97 93 90 87 85 84 84 83 82 77 75 72 60
285 283 272 127 102 99 87 60 54 71 70 64 70 95 112 105 97 106 106 101 104 110 118 127 130 122 116 110 108 107 108 109 110 112 112 110 108 105 100 95 92 90 89 88 87 84 81 75 63
296 293 300 82 103 98 89 85 69 58 75 66 52 86 119 125 124 115 113 112 111 112 123 131 136 134 130 123 120 119 119 124 130 130 129 127 127 124 117 108 100 99 97 95 98 95 92 87 72
273 280 347 50 82 100 107 106 87 65 85 77 66 76 111 128 131 126 125 121 112 109 119 127 128 128 130 133 135 138 138 145 151 154 156 156 155 134 120 110 113 109 111 115 119 122 122 118 91
235 348 29 51 71 94 104 101 117 130 104 99 92 91 109 130 140 142 140 134 131 136 135 129 133 133 132 131 139 154 152 158 173 159 160 176 127 104 114 124 130 134 137 143 163 174 178 201 162
246 54 48 58 69 80 99 96 77 107 87 97 113 124 135 145 146 147 145 139 137 132 126 128 131 127 128 131 137 128 130 150 159 142 133 115 106 127 133 143 147 160 176 187 179 203 210 173 105
127 52 55 80 80 81 89 92 62 63 75 85 114 129 142 154 150 155 147 133 136 137 123 118 120 129 136 129 127 138 142 153 148 144 134 117 115 124 125 138 150 159 164 152 125 105 67 61 64
144 119 107 106 119 125 112 99 85 75 90 103 115 131 143 148 152 150 140 137 135 123 129 137 133 122 120 112 134 144 143 138 122 106 123 127 124 124 118 124 112 121 117 98 68 71 58 50 49
91 147 164 159 152 142 134 162 179 145 138 133 132 142 146 148 147 139 148 148 136 138 148 149 152 131 129 131 139 124 122 111 111 108 151 138 135 129 118 105 104 94 85 78 80 80 73 59 54
218 214 200 181 184 168 192 216 194 156 163 154 154 150 148 149 146 151 156 150 146 163 162 160 161 147 147 132 125 113 115 115 109 119 255 109 110 112 107 104 110 107 98 82 72 72 73 80 69
223 225 212 184 187 170 212 236 163 154 172 167 163 153 154 153 167 163 157 149 150 165 159 146 162 146 133 126 123 119 116 112 119 115 57 66 84 78 78 67 85 84 86 86 82 78 70 67 61
220 230 206 177 183 181 207 226 168 165 178 175 174 174 173 168 175 168 167 156 162 160 147 149 164 151 139 124 121 115 108 105 101 91 74 47 64 88 86 69 69 83 86 87 89 76 77 79 80
255 254 232 194 169 196 224 215 187 181 187 189 183 188 185 171 168 159 155 148 138 136 146 144 137 140 126 118 126 103 90 94 91 87 91 74 65 94 92 86 70 73 74 74 88 93 80 78 82
306 311 297 303 130 211 248 240 209 185 183 195 193 191 178 167 158 147 142 131 125 133 141 141 144 150 129 119 119 114 105 97 92 100 101 108 93 86 97 96 81 73 82 99 109 104 97 77 89
280 278 274 253 217 249 254 253 211 187 188 189 197 196 170 166 153 145 152 149 158 156 169 159 159 153 135 128 137 134 129 134 117 100 94 109 118 114 120 118 109 101 91 86 95 101 105 134 143
271 284 297 298 286 255 246 245 210 181 182 182 193 191 169 170 167 161 160 160 165 173 175 177 156 154 140 137 135 131 118 128 116 121 106 92 96 98 103 122 126 138 133 130 149 155 146 188 244
274 301 289 276 270 258 236 251 218 179 180 186 186 185 181 178 174 165 166 169 171 177 179 177 159 161 152 148 152 158 154 153 152 149 156 158 121 110 90 123 141 140 133 142 200 166 163 151 231
299 301 282 271 264 268 251 251 190 178 184 181 181 181 178 176 179 168 166 173 173 166 162 158 155 159 158 159 154 166 158 151 144 142 153 151 133 141 153 164 146 140 139 153 164 120 157 172 175
285 272 262 252 253 255 238 236 192 173 150 149 159 166 165 169 171 162 162 160 159 149 149 152 149 146 148 155 155 171 162 157 150 152 151 144 135 155 173 154 137 149 156 161 158 155 153 184 64
252 268 266 224 218 234 203 222 136 100 97 109 126 144 153 158 160 151 152 153 158 156 158 160 156 156 162 173 174 174 172 172 173 163 154 148 153 166 187 164 158 154 160 162 155 158 159 168 129
252 259 277 287 285 277 209 185 120 104 99 98 103 118 128 140 141 143 152 157 156 159 165 170 177 177 178 185 182 173 168 163 167 162 157 162 164 173 175 168 160 148 147 139 130 133 160 159 155
270 263 283 300 302 294 231 139 132 120 126 120 109 113 126 135 132 133 133 153 158 163 166 170 180 181 187 190 186 183 171 166 168 166 162 161 164 168 162 164 155 152 145 135 138 136 129 98 90
259 285 280 266 290 286 270 220 164 154 145 135 127 119 121 121 128 139 147 152 165 161 165 178 188 192 195 194 188 184 176 169 167 167 166 169 168 165 160 155 151 153 156 149 136 119 114 113 105
222 241 256 270 269 288 302 345 92 105 106 122 136 123 117 120 127 133 135 141 146 155 171 190 189 181 189 195 185 176 171 167 167 162 167 166 161 166 173 166 156 158 159 141 134 146 156 149 146
251 250 255 261 274 276 288 299 102 108 125 130 128 124 125 122 128 128 120 117 130 158 167 181 186 180 190 189 171 178 176 173 168 163 164 169 173 179 177 155 150 160 150 143 146 152 137 131 132